TimePST,TemperatureF,Dew PointF,Humidity,Sea Level PressureIn,VisibilityMPH,Wind Direction,Wind SpeedMPH,Gust SpeedMPH,PrecipitationIn,Events,Conditions,WindDirDegrees,DateUTC
12:53 AM,36.0,30.0,79,30.17,10.0,NW,5.8,-,N/A,,Clear,320,2013-01-11 08:53:00
1:53 AM,35.1,30.0,82,30.18,10.0,Calm,Calm,-,N/A,,Clear,0,2013-01-11 09:53:00
2:53 AM,35.1,30.0,82,30.18,10.0,Calm,Calm,-,N/A,,Scattered Clouds,0,2013-01-11 10:53:00
3:53 AM,32.0,28.0,85,30.18,10.0,Calm,Calm,-,N/A,,Scattered Clouds,0,2013-01-11 11:53:00
4:53 AM,32.0,28.0,85,30.19,10.0,Calm,Calm,-,N/A,,Scattered Clouds,0,2013-01-11 12:53:00
5:53 AM,32.0,28.0,85,30.21,10.0,Calm,Calm,-,N/A,,Scattered Clouds,0,2013-01-11 13:53:00
6:53 AM,30.9,27.0,85,30.23,10.0,NNE,3.5,-,N/A,,Mostly Cloudy,30,2013-01-11 14:53:00
7:53 AM,32.0,28.9,88,30.25,8.0,Calm,Calm,-,N/A,,Scattered Clouds,0,2013-01-11 15:53:00
8:53 AM,37.0,30.9,79,30.26,9.0,Calm,Calm,-,N/A,,Partly Cloudy,0,2013-01-11 16:53:00
9:53 AM,39.9,32.0,73,30.26,10.0,ESE,3.5,-,N/A,,Partly Cloudy,110,2013-01-11 17:53:00
10:53 AM,43.0,30.9,62,30.25,10.0,Calm,Calm,-,N/A,,Partly Cloudy,0,2013-01-11 18:53:00
11:53 AM,46.0,30.9,56,30.20,10.0,Calm,Calm,-,N/A,,Partly Cloudy,0,2013-01-11 19:53:00
12:53 PM,48.9,30.0,48,30.18,10.0,WNW,6.9,-,N/A,,Partly Cloudy,290,2013-01-11 20:53:00
1:53 PM,50.0,30.0,46,30.17,10.0,NW,9.2,-,N/A,,Scattered Clouds,310,2013-01-11 21:53:00
2:53 PM,50.0,30.0,46,30.16,10.0,WNW,8.1,-,N/A,,Scattered Clouds,300,2013-01-11 22:53:00
3:53 PM,48.9,28.9,46,30.15,10.0,West,6.9,-,N/A,,Scattered Clouds,280,2013-01-11 23:53:00
4:53 PM,46.9,28.9,50,30.14,10.0,Calm,Calm,-,N/A,,Scattered Clouds,0,2013-01-12 00:53:00
5:53 PM,46.0,28.0,50,30.14,10.0,Calm,Calm,-,N/A,,Mostly Cloudy,0,2013-01-12 01:53:00
6:53 PM,44.1,30.0,58,30.14,10.0,NNE,3.5,-,N/A,,Overcast,30,2013-01-12 02:53:00
7:53 PM,43.0,30.9,62,30.13,10.0,Calm,Calm,-,N/A,,Mostly Cloudy,0,2013-01-12 03:53:00
8:53 PM,41.0,30.9,67,30.14,10.0,Calm,Calm,-,N/A,,Scattered Clouds,0,2013-01-12 04:53:00
9:53 PM,37.9,30.0,73,30.15,10.0,East,3.5,-,N/A,,Partly Cloudy,90,2013-01-12 05:53:00
10:53 PM,37.0,30.0,76,30.16,9.0,Calm,Calm,-,N/A,,Clear,0,2013-01-12 06:53:00
11:53 PM,37.0,30.0,76,30.14,9.0,SW,4.6,-,N/A,,Partly Cloudy,230,2013-01-12 07:53:00